Time,TemperatureF,DewpointF,PressureIn,WindDirection,WindDirectionDegrees,WindSpeedMPH,WindSpeedGustMPH,Humidity,HourlyPrecipIn,Conditions,Clouds,dailyrainin,SoftwareType,DateUTC
2013-04-07 00:00:00,46.9,38.0,30.22,NE,55,0.0,0.0,71,0.00,,OVC055,0.00,VWS V14.01,2013-04-07 04:00:00,
2013-04-07 00:01:00,46.9,38.4,30.22,NE,55,0.0,0.0,72,0.00,,OVC055,0.00,VWS V14.01,2013-04-07 04:01:00,
2013-04-07 00:06:00,46.7,38.5,30.22,NE,55,0.0,0.0,73,0.00,,OVC055,0.00,VWS V14.01,2013-04-07 04:06:00,
2013-04-07 00:11:00,46.4,38.2,30.21,NE,55,0.0,0.0,73,0.00,,OVC055,0.00,VWS V14.01,2013-04-07 04:11:00,
2013-04-07 00:16:00,46.0,38.2,30.22,NE,55,0.0,0.0,74,0.00,,OVC055,0.00,VWS V14.01,2013-04-07 04:16:00,
2013-04-07 00:22:00,45.8,38.0,30.22,NE,55,0.0,0.0,74,0.00,,OVC055,0.00,VWS V14.01,2013-04-07 04:22:00,
2013-04-07 00:27:00,45.5,38.0,30.22,NE,56,0.0,0.0,75,0.00,,OVC055,0.00,VWS V14.01,2013-04-07 04:27:00,
2013-04-07 00:30:00,45.4,37.6,30.22,NE,56,0.0,0.0,74,0.00,,OVC055,0.00,VWS V14.01,2013-04-07 04:30:00,
2013-04-07 00:32:00,45.2,37.4,30.21,NE,55,0.0,0.0,74,0.00,,OVC055,0.00,VWS V14.01,2013-04-07 04:32:00,
2013-04-07 00:37:00,45.0,37.6,30.22,NE,55,0.0,0.0,75,0.00,,OVC055,0.00,VWS V14.01,2013-04-07 04:37:00,
2013-04-07 00:41:00,44.8,37.7,30.22,NE,56,0.0,0.0,76,0.00,,OVC055,0.00,VWS V14.01,2013-04-07 04:41:00,
2013-04-07 00:46:00,44.7,37.6,30.22,NE,56,0.0,0.0,76,0.00,,OVC055,0.00,VWS V14.01,2013-04-07 04:46:00,
2013-04-07 00:51:00,44.5,38.1,30.22,NE,55,0.0,0.0,78,0.00,,OVC055,0.00,VWS V14.01,2013-04-07 04:51:00,
2013-04-07 00:57:00,44.2,37.8,30.22,NE,56,0.0,0.0,78,0.00,,OVC055,0.00,VWS V14.01,2013-04-07 04:57:00,
2013-04-07 01:00:00,44.1,37.7,30.22,NE,56,0.0,0.0,78,0.00,,OVC055,0.00,VWS V14.01,2013-04-07 05:00:00,
2013-04-07 01:02:00,43.8,37.4,30.22,NE,56,0.0,0.0,78,0.00,,OVC055,0.00,VWS V14.01,2013-04-07 05:02:00,
2013-04-07 01:07:00,43.6,37.5,30.22,NE,55,0.0,0.0,79,0.00,,OVC055,0.00,VWS V14.01,2013-04-07 05:07:00,
2013-04-07 01:12:00,43.5,37.4,30.21,NE,56,0.0,0.0,79,0.00,,OVC055,0.00,VWS V14.01,2013-04-07 05:12:00,
2013-04-07 01:17:00,43.4,38.0,30.21,NE,56,0.0,0.0,81,0.00,,OVC055,0.00,VWS V14.01,2013-04-07 05:17:00,
2013-04-07 01:22:00,43.1,37.0,30.21,NE,55,0.0,0.0,79,0.00,,OVC055,0.00,VWS V14.01,2013-04-07 05:22:00,
2013-04-07 01:27:00,42.9,37.2,30.22,NE,56,0.0,1.0,80,0.00,,OVC055,0.00,VWS V14.01,2013-04-07 05:27:00,
2013-04-07 01:30:00,42.8,37.1,30.22,NE,55,0.0,1.0,80,0.00,,OVC055,0.00,VWS V14.01,2013-04-07 05:30:00,
2013-04-07 01:32:00,42.7,37.0,30.22,NE,56,0.0,0.0,80,0.00,,OVC055,0.00,VWS V14.01,2013-04-07 05:32:00,
2013-04-07 01:37:00,42.5,36.8,30.22,NE,55,0.0,0.0,80,0.00,,OVC055,0.00,VWS V14.01,2013-04-07 05:37:00,
2013-04-07 01:42:00,42.4,37.3,30.22,NE,56,0.0,0.0,82,0.00,,OVC055,0.00,VWS V14.01,2013-04-07 05:42:00,
2013-04-07 01:47:00,42.3,37.5,30.22,NE,56,0.0,0.0,83,0.00,,OVC055,0.00,VWS V14.01,2013-04-07 05:47:00,
2013-04-07 01:52:00,42.1,37.0,30.22,NE,56,0.0,0.0,82,0.00,,OVC055,0.00,VWS V14.01,2013-04-07 05:52:00,
2013-04-07 01:57:00,41.9,37.1,30.22,NE,56,0.0,0.0,83,0.00,,OVC055,0.00,VWS V14.01,2013-04-07 05:57:00,
2013-04-07 02:00:00,41.8,37.0,30.22,NE,55,0.0,0.0,83,0.00,,OVC055,0.00,VWS V14.01,2013-04-07 06:00:00,
2013-04-07 02:02:00,41.7,36.9,30.22,NE,56,0.0,0.0,83,0.00,,OVC055,0.00,VWS V14.01,2013-04-07 06:02:00,
2013-04-07 02:07:00,41.5,37.3,30.22,NE,55,0.0,1.0,85,0.00,,OVC055,0.00,VWS V14.01,2013-04-07 06:07:00,
2013-04-07 02:12:00,41.3,37.7,30.22,NE,56,0.0,1.0,87,0.00,,OVC055,0.00,VWS V14.01,2013-04-07 06:12:00,
2013-04-07 02:17:00,41.2,37.6,30.22,NE,56,0.0,1.0,87,0.00,,OVC055,0.00,VWS V14.01,2013-04-07 06:17:00,
2013-04-07 02:22:00,41.1,37.2,30.21,NE,56,0.0,1.0,86,0.00,,OVC055,0.00,VWS V14.01,2013-04-07 06:22:00,
2013-04-07 02:27:00,41.0,37.1,30.21,NE,56,0.0,1.0,86,0.00,,OVC055,0.00,VWS V14.01,2013-04-07 06:27:00,
2013-04-07 02:30:00,41.0,37.1,30.22,NE,56,0.0,1.0,86,0.00,,OVC055,0.00,VWS V14.01,2013-04-07 06:30:00,
2013-04-07 02:32:00,40.9,37.0,30.22,NE,56,0.0,0.0,86,0.00,,OVC055,0.00,VWS V14.01,2013-04-07 06:32:00,
2013-04-07 02:37:00,40.8,36.9,30.21,NE,56,0.0,2.0,86,0.00,,OVC055,0.00,VWS V14.01,2013-04-07 06:37:00,
2013-04-07 02:42:00,40.7,36.5,30.21,NE,56,0.0,2.0,85,0.00,,OVC055,0.00,VWS V14.01,2013-04-07 06:42:00,
2013-04-07 02:47:00,41.0,37.1,30.21,NE,46,1.0,3.0,86,0.00,,OVC055,0.00,VWS V14.01,2013-04-07 06:47:00,
2013-04-07 02:52:00,41.2,37.0,30.21,NE,44,0.0,3.0,85,0.00,,OVC055,0.00,VWS V14.01,2013-04-07 06:52:00,
2013-04-07 02:57:00,41.5,36.7,30.21,WNW,303,1.0,3.0,83,0.00,,OVC055,0.00,VWS V14.01,2013-04-07 06:57:00,
2013-04-07 03:00:00,41.7,36.6,30.21,NW,304,1.0,3.0,82,0.00,,OVC055,0.00,VWS V14.01,2013-04-07 07:00:00,
2013-04-07 03:02:00,42.3,36.9,30.21,WNW,286,0.0,2.0,81,0.00,,OVC055,0.00,VWS V14.01,2013-04-07 07:02:00,
2013-04-07 03:07:00,42.9,36.8,30.21,WNW,299,0.0,2.0,79,0.00,,OVC055,0.00,VWS V14.01,2013-04-07 07:07:00,
2013-04-07 03:12:00,43.6,37.5,30.21,WNW,299,1.0,2.0,79,0.00,,OVC055,0.00,VWS V14.01,2013-04-07 07:12:00,
2013-04-07 03:17:00,44.2,37.8,30.21,North,350,0.0,2.0,78,0.00,,OVC055,0.00,VWS V14.01,2013-04-07 07:17:00,
2013-04-07 03:22:00,44.4,37.7,30.21,North,350,0.0,2.0,77,0.00,,OVC055,0.00,VWS V14.01,2013-04-07 07:22:00,
2013-04-07 03:27:00,44.5,37.8,30.21,North,350,1.0,2.0,77,0.00,,OVC055,0.00,VWS V14.01,2013-04-07 07:27:00,
2013-04-07 03:30:00,44.4,37.7,30.20,North,350,1.0,2.0,77,0.00,,OVC055,0.00,VWS V14.01,2013-04-07 07:30:00,
2013-04-07 03:32:00,44.5,37.4,30.21,North,350,0.0,2.0,76,0.00,,OVC055,0.00,VWS V14.01,2013-04-07 07:32:00,
2013-04-07 03:37:00,44.5,37.4,30.20,North,350,0.0,2.0,76,0.00,,OVC055,0.00,VWS V14.01,2013-04-07 07:37:00,
2013-04-07 03:42:00,44.5,37.4,30.20,North,350,0.0,2.0,76,0.00,,OVC055,0.00,VWS V14.01,2013-04-07 07:42:00,
2013-04-07 03:47:00,44.3,37.2,30.20,North,350,0.0,2.0,76,0.00,,OVC055,0.00,VWS V14.01,2013-04-07 07:47:00,
2013-04-07 03:52:00,44.3,37.2,30.20,North,350,0.0,2.0,76,0.00,,OVC055,0.00,VWS V14.01,2013-04-07 07:52:00,
2013-04-07 03:57:00,44.4,37.3,30.20,North,350,0.0,2.0,76,0.00,,OVC055,0.00,VWS V14.01,2013-04-07 07:57:00,
2013-04-07 04:00:00,44.4,37.3,30.20,North,350,0.0,2.0,76,0.00,,OVC055,0.00,VWS V14.01,2013-04-07 08:00:00,
2013-04-07 04:02:00,44.4,37.3,30.20,North,350,0.0,1.0,76,0.00,,OVC055,0.00,VWS V14.01,2013-04-07 08:02:00,
2013-04-07 04:07:00,44.3,37.2,30.20,North,350,0.0,1.0,76,0.00,,OVC055,0.00,VWS V14.01,2013-04-07 08:07:00,
2013-04-07 04:12:00,44.1,37.0,30.20,North,350,0.0,1.0,76,0.00,,OVC055,0.00,VWS V14.01,2013-04-07 08:12:00,
2013-04-07 04:17:00,44.1,37.0,30.20,North,350,0.0,1.0,76,0.00,,OVC055,0.00,VWS V14.01,2013-04-07 08:17:00,
2013-04-07 04:22:00,44.0,37.3,30.20,North,350,0.0,1.0,77,0.00,,OVC055,0.00,VWS V14.01,2013-04-07 08:22:00,
2013-04-07 04:27:00,43.6,37.5,30.20,North,350,0.0,1.0,79,0.00,,OVC055,0.00,VWS V14.01,2013-04-07 08:27:00,
2013-04-07 04:30:00,43.4,37.3,30.20,North,350,0.0,1.0,79,0.00,,OVC055,0.00,VWS V14.01,2013-04-07 08:30:00,
2013-04-07 04:32:00,43.1,37.4,30.20,North,350,0.0,0.0,80,0.00,,OVC055,0.00,VWS V14.01,2013-04-07 08:32:00,
2013-04-07 04:37:00,42.5,37.4,30.20,North,350,0.0,1.0,82,0.00,,OVC055,0.00,VWS V14.01,2013-04-07 08:37:00,
2013-04-07 04:42:00,41.8,36.7,30.21,North,350,0.0,1.0,82,0.00,,OVC055,0.00,VWS V14.01,2013-04-07 08:42:00,
2013-04-07 04:47:00,41.2,36.4,30.20,North,350,0.0,1.0,83,0.00,,OVC055,0.00,VWS V14.01,2013-04-07 08:47:00,
2013-04-07 04:52:00,40.9,36.5,30.20,North,350,0.0,1.0,84,0.00,,OVC055,0.00,VWS V14.01,2013-04-07 08:52:00,
2013-04-07 04:57:00,40.6,36.5,30.21,North,350,0.0,1.0,85,0.00,,OVC055,0.00,VWS V14.01,2013-04-07 08:57:00,
2013-04-07 05:00:00,40.5,36.3,30.21,North,350,0.0,1.0,85,0.00,,OVC055,0.00,VWS V14.01,2013-04-07 09:00:00,
2013-04-07 05:02:00,40.3,36.2,30.21,North,350,0.0,0.0,85,0.00,,OVC055,0.00,VWS V14.01,2013-04-07 09:02:00,
2013-04-07 05:07:00,40.0,36.2,30.21,North,350,0.0,1.0,86,0.00,,OVC055,0.00,VWS V14.01,2013-04-07 09:07:00,
2013-04-07 05:12:00,39.8,36.2,30.21,North,350,0.0,1.0,87,0.00,,OVC055,0.00,VWS V14.01,2013-04-07 09:12:00,
2013-04-07 05:17:00,39.6,36.3,30.21,North,350,0.0,1.0,88,0.00,,OVC055,0.00,VWS V14.01,2013-04-07 09:17:00,
2013-04-07 05:22:00,39.4,36.2,30.21,North,350,0.0,1.0,88,0.00,,OVC055,0.00,VWS V14.01,2013-04-07 09:22:00,
2013-04-07 05:27:00,39.2,36.0,30.21,North,350,0.0,1.0,88,0.00,,OVC055,0.00,VWS V14.01,2013-04-07 09:27:00,
2013-04-07 05:30:00,39.2,36.0,30.20,North,350,0.0,1.0,88,0.00,,OVC055,0.00,VWS V14.01,2013-04-07 09:30:00,
2013-04-07 05:32:00,39.1,35.8,30.21,North,350,0.0,0.0,88,0.00,,OVC055,0.00,VWS V14.01,2013-04-07 09:32:00,
2013-04-07 05:37:00,39.0,35.8,30.21,North,350,0.0,0.0,88,0.00,,OVC055,0.00,VWS V14.01,2013-04-07 09:37:00,
2013-04-07 05:42:00,38.8,35.8,30.21,North,350,0.0,0.0,89,0.00,,OVC055,0.00,VWS V14.01,2013-04-07 09:42:00,
2013-04-07 05:47:00,38.8,35.8,30.21,North,350,0.0,0.0,89,0.00,,OVC055,0.00,VWS V14.01,2013-04-07 09:47:00,
2013-04-07 05:52:00,38.7,35.7,30.21,North,350,0.0,0.0,89,0.00,,OVC055,0.00,VWS V14.01,2013-04-07 09:52:00,
2013-04-07 05:57:00,38.5,35.5,30.21,North,350,0.0,0.0,89,0.00,,OVC055,0.00,VWS V14.01,2013-04-07 09:57:00,
2013-04-07 06:00:00,38.5,35.5,30.21,North,350,0.0,0.0,89,0.00,,OVC055,0.00,VWS V14.01,2013-04-07 10:00:00,
2013-04-07 06:02:00,38.4,35.5,30.21,North,350,0.0,0.0,89,0.00,,OVC055,0.00,VWS V14.01,2013-04-07 10:02:00,
2013-04-07 06:07:00,38.2,35.5,30.21,North,350,0.0,0.0,90,0.00,,OVC055,0.00,VWS V14.01,2013-04-07 10:07:00,
2013-04-07 06:12:00,38.2,35.5,30.21,North,350,0.0,0.0,90,0.00,,OVC055,0.00,VWS V14.01,2013-04-07 10:12:00,
2013-04-07 06:17:00,38.2,35.5,30.21,North,350,0.0,0.0,90,0.00,,OVC055,0.00,VWS V14.01,2013-04-07 10:17:00,
2013-04-07 06:22:00,38.2,35.5,30.21,North,350,0.0,0.0,90,0.00,,OVC055,0.00,VWS V14.01,2013-04-07 10:22:00,
2013-04-07 06:27:00,38.0,35.3,30.22,North,350,0.0,0.0,90,0.00,,OVC055,0.00,VWS V14.01,2013-04-07 10:27:00,
2013-04-07 06:30:00,37.9,35.2,30.22,North,350,0.0,0.0,90,0.00,,OVC055,0.00,VWS V14.01,2013-04-07 10:30:00,
2013-04-07 06:32:00,37.7,35.3,30.22,North,350,0.0,0.0,91,0.00,,OVC055,0.00,VWS V14.01,2013-04-07 10:32:00,
2013-04-07 06:37:00,37.5,35.1,30.22,North,350,0.0,0.0,91,0.00,,OVC055,0.00,VWS V14.01,2013-04-07 10:37:00,
2013-04-07 06:42:00,37.4,35.3,30.22,North,350,0.0,0.0,92,0.00,,OVC055,0.00,VWS V14.01,2013-04-07 10:42:00,
2013-04-07 06:47:00,37.3,35.2,30.22,North,350,0.0,0.0,92,0.00,,OVC055,0.00,VWS V14.01,2013-04-07 10:47:00,
2013-04-07 06:52:00,37.3,35.2,30.22,North,350,0.0,0.0,92,0.00,,OVC055,0.00,VWS V14.01,2013-04-07 10:52:00,
2013-04-07 06:57:00,37.2,35.1,30.22,North,350,0.0,0.0,92,0.00,,OVC055,0.00,VWS V14.01,2013-04-07 10:57:00,
2013-04-07 07:00:00,37.1,35.0,30.22,North,350,0.0,0.0,92,0.00,,OVC055,0.00,VWS V14.01,2013-04-07 11:00:00,
2013-04-07 07:02:00,37.1,35.0,30.23,North,350,0.0,0.0,92,0.00,,OVC055,0.00,VWS V14.01,2013-04-07 11:02:00,
2013-04-07 07:08:00,37.0,34.9,30.23,North,350,0.0,0.0,92,0.00,,OVC055,0.00,VWS V14.01,2013-04-07 11:08:00,
2013-04-07 07:12:00,36.9,35.1,30.23,North,350,0.0,0.0,93,0.00,,OVC055,0.00,VWS V14.01,2013-04-07 11:12:00,
2013-04-07 07:17:00,36.8,35.0,30.23,North,350,0.0,0.0,93,0.00,,OVC055,0.00,VWS V14.01,2013-04-07 11:17:00,
2013-04-07 07:22:00,36.7,34.9,30.23,North,350,0.0,0.0,93,0.00,,OVC055,0.00,VWS V14.01,2013-04-07 11:22:00,
2013-04-07 07:27:00,36.6,34.8,30.23,North,350,0.0,0.0,93,0.00,,OVC055,0.00,VWS V14.01,2013-04-07 11:27:00,
2013-04-07 07:30:00,36.6,34.8,30.23,North,350,0.0,0.0,93,0.00,,OVC055,0.00,VWS V14.01,2013-04-07 11:30:00,
2013-04-07 07:32:00,36.6,35.0,30.23,North,350,0.0,1.0,94,0.00,,OVC055,0.00,VWS V14.01,2013-04-07 11:32:00,
2013-04-07 07:37:00,36.7,35.1,30.23,North,350,0.0,1.0,94,0.00,,OVC055,0.00,VWS V14.01,2013-04-07 11:37:00,
2013-04-07 07:42:00,36.8,35.2,30.23,North,350,0.0,2.0,94,0.00,,OVC055,0.00,VWS V14.01,2013-04-07 11:42:00,
2013-04-07 07:47:00,36.9,35.3,30.23,North,350,0.0,2.0,94,0.00,,OVC055,0.00,VWS V14.01,2013-04-07 11:47:00,
2013-04-07 07:52:00,37.2,35.6,30.22,North,350,1.0,2.0,94,0.00,,OVC055,0.00,VWS V14.01,2013-04-07 11:52:00,
2013-04-07 07:58:00,37.7,36.1,30.22,North,350,0.0,2.0,94,0.00,,OVC055,0.00,VWS V14.01,2013-04-07 11:58:00,
2013-04-07 08:00:00,37.9,36.3,30.22,North,350,0.0,2.0,94,0.00,,OVC055,0.00,VWS V14.01,2013-04-07 12:00:00,
2013-04-07 08:03:00,38.3,36.7,30.22,NW,309,0.0,2.0,94,0.00,,OVC055,0.00,VWS V14.01,2013-04-07 12:03:00,
2013-04-07 08:08:00,38.9,37.0,30.23,NW,309,0.0,2.0,93,0.00,,OVC055,0.00,VWS V14.01,2013-04-07 12:08:00,
2013-04-07 08:13:00,39.8,37.1,30.23,NW,305,1.0,2.0,90,0.00,,OVC055,0.00,VWS V14.01,2013-04-07 12:13:00,
2013-04-07 08:18:00,41.3,37.7,30.23,WNW,292,4.0,7.0,87,0.00,,OVC055,0.00,VWS V14.01,2013-04-07 12:18:00,
2013-04-07 08:23:00,43.2,38.4,30.23,WNW,288,5.0,7.0,83,0.00,,OVC055,0.00,VWS V14.01,2013-04-07 12:23:00,
2013-04-07 08:28:00,44.2,38.4,30.23,West,264,0.0,7.0,80,0.00,,OVC055,0.00,VWS V14.01,2013-04-07 12:28:00,
2013-04-07 08:30:00,44.4,38.6,30.23,West,264,0.0,7.0,80,0.00,,OVC055,0.00,VWS V14.01,2013-04-07 12:30:00,
2013-04-07 08:33:00,45.0,38.9,30.23,West,269,1.0,4.0,79,0.00,,OVC055,0.00,VWS V14.01,2013-04-07 12:33:00,
2013-04-07 08:38:00,45.6,39.2,30.23,South,184,0.0,4.0,78,0.00,,OVC055,0.00,VWS V14.01,2013-04-07 12:38:00,
2013-04-07 08:43:00,46.2,39.4,30.23,West,268,6.0,6.0,77,0.00,,OVC055,0.00,VWS V14.01,2013-04-07 12:43:00,
2013-04-07 08:48:00,46.9,39.4,30.23,NW,316,0.0,6.0,75,0.00,,OVC055,0.00,VWS V14.01,2013-04-07 12:48:00,
2013-04-07 08:53:00,47.5,40.0,30.23,NNW,329,1.0,6.0,75,0.00,,OVC055,0.00,VWS V14.01,2013-04-07 12:53:00,
2013-04-07 08:58:00,48.2,40.0,30.23,NW,324,1.0,6.0,73,0.00,,OVC055,0.00,VWS V14.01,2013-04-07 12:58:00,
2013-04-07 09:00:00,48.3,40.1,30.23,NNW,327,3.0,6.0,73,0.00,,OVC055,0.00,VWS V14.01,2013-04-07 13:00:00,
2013-04-07 09:03:00,48.7,39.7,30.23,NNW,348,4.0,4.0,71,0.00,,OVC055,0.00,VWS V14.01,2013-04-07 13:03:00,
2013-04-07 09:08:00,49.3,39.9,30.23,NNW,335,4.0,6.0,70,0.00,,OVC055,0.00,VWS V14.01,2013-04-07 13:08:00,
2013-04-07 09:13:00,49.9,39.8,30.24,North,5,2.0,6.0,68,0.00,,OVC055,0.00,VWS V14.01,2013-04-07 13:13:00,
2013-04-07 09:18:00,50.6,39.7,30.24,NNE,30,4.0,6.0,66,0.00,,OVC055,0.00,VWS V14.01,2013-04-07 13:18:00,
2013-04-07 09:23:00,51.4,40.8,30.24,NNE,28,1.0,6.0,67,0.00,,OVC055,0.00,VWS V14.01,2013-04-07 13:23:00,
2013-04-07 09:28:00,52.3,41.7,30.23,NW,319,2.0,6.0,67,0.00,,OVC055,0.00,VWS V14.01,2013-04-07 13:28:00,
2013-04-07 09:30:00,52.5,41.5,30.23,North,355,3.0,6.0,66,0.00,,OVC055,0.00,VWS V14.01,2013-04-07 13:30:00,
2013-04-07 09:33:00,53.1,40.4,30.23,NNW,340,0.0,4.0,62,0.00,,OVC055,0.00,VWS V14.01,2013-04-07 13:33:00,
2013-04-07 09:38:00,53.6,40.5,30.23,NNE,33,2.0,4.0,61,0.00,,OVC055,0.00,VWS V14.01,2013-04-07 13:38:00,
2013-04-07 09:43:00,54.4,40.4,30.23,ENE,74,1.0,4.0,59,0.00,,OVC055,0.00,VWS V14.01,2013-04-07 13:43:00,
2013-04-07 09:48:00,55.1,39.2,30.23,East,89,2.0,6.0,55,0.00,,OVC055,0.00,VWS V14.01,2013-04-07 13:48:00,
2013-04-07 09:53:00,56.1,39.2,30.23,North,5,1.0,6.0,53,0.00,,OVC055,0.00,VWS V14.01,2013-04-07 13:53:00,
2013-04-07 09:58:00,56.8,37.3,30.23,NW,315,2.0,6.0,48,0.00,,OVC055,0.00,VWS V14.01,2013-04-07 13:58:00,
2013-04-07 10:00:00,56.9,37.4,30.23,North,355,1.0,6.0,48,0.00,,OVC055,0.00,VWS V14.01,2013-04-07 14:00:00,
2013-04-07 10:03:00,57.2,37.7,30.23,WSW,252,2.0,7.0,48,0.00,,OVC055,0.00,VWS V14.01,2013-04-07 14:03:00,
2013-04-07 10:08:00,57.5,38.0,30.23,West,277,3.0,9.0,48,0.00,,OVC055,0.00,VWS V14.01,2013-04-07 14:08:00,
2013-04-07 10:13:00,57.8,38.8,30.23,NNW,333,1.0,9.0,49,0.00,,OVC055,0.00,VWS V14.01,2013-04-07 14:13:00,
2013-04-07 10:18:00,58.2,37.5,30.23,South,178,1.0,9.0,46,0.00,,OVC055,0.00,VWS V14.01,2013-04-07 14:18:00,
2013-04-07 10:23:00,58.4,37.7,30.23,WSW,240,0.0,10.0,46,0.00,,OVC055,0.00,VWS V14.01,2013-04-07 14:23:00,
2013-04-07 10:28:00,59.3,40.7,30.22,NNW,341,1.0,10.0,50,0.00,,OVC055,0.00,VWS V14.01,2013-04-07 14:28:00,
2013-04-07 10:30:00,59.4,40.8,30.22,ESE,106,1.0,10.0,50,0.00,,OVC055,0.00,VWS V14.01,2013-04-07 14:30:00,
2013-04-07 10:33:00,60.0,38.0,30.22,North,355,0.0,4.0,44,0.00,,OVC055,0.00,VWS V14.01,2013-04-07 14:33:00,
2013-04-07 10:38:00,60.4,36.6,30.23,WSW,238,12.0,12.0,41,0.00,,OVC055,0.00,VWS V14.01,2013-04-07 14:38:00,
2013-04-07 10:43:00,60.0,37.5,30.23,SSE,162,5.0,12.0,43,0.00,,OVC055,0.00,VWS V14.01,2013-04-07 14:43:00,
2013-04-07 10:48:00,60.0,39.7,30.22,WNW,302,3.0,12.0,47,0.00,,OVC055,0.00,VWS V14.01,2013-04-07 14:48:00,
2013-04-07 10:53:00,60.6,39.2,30.22,South,184,1.0,12.0,45,0.00,,OVC055,0.00,VWS V14.01,2013-04-07 14:53:00,
2013-04-07 10:59:00,61.4,41.0,30.23,SW,229,1.0,12.0,47,0.00,,OVC055,0.00,VWS V14.01,2013-04-07 14:59:00,
2013-04-07 11:00:00,61.5,40.0,30.23,SE,128,3.0,12.0,45,0.00,,OVC055,0.00,VWS V14.01,2013-04-07 15:00:00,
2013-04-07 11:04:00,61.8,40.8,30.23,SE,135,2.0,4.0,46,0.00,,OVC055,0.00,VWS V14.01,2013-04-07 15:04:00,
2013-04-07 11:09:00,61.1,40.2,30.23,NW,308,3.0,11.0,46,0.00,,OVC055,0.00,VWS V14.01,2013-04-07 15:09:00,
2013-04-07 11:14:00,60.8,39.9,30.23,SW,221,0.0,11.0,46,0.00,,OVC055,0.00,VWS V14.01,2013-04-07 15:14:00,
2013-04-07 11:19:00,60.9,41.1,30.23,West,259,4.0,16.0,48,0.00,,OVC055,0.00,VWS V14.01,2013-04-07 15:19:00,
2013-04-07 11:24:00,60.9,40.5,30.23,East,81,5.0,16.0,47,0.00,,OVC055,0.00,VWS V14.01,2013-04-07 15:24:00,
2013-04-07 11:29:00,61.4,41.6,30.23,NW,308,4.0,4.0,48,0.00,,OVC055,0.00,VWS V14.01,2013-04-07 15:29:00,
2013-04-07 11:30:00,61.4,41.6,30.23,South,174,3.0,16.0,48,0.00,,OVC055,0.00,VWS V14.01,2013-04-07 15:30:00,
2013-04-07 11:34:00,62.2,42.3,30.23,West,278,1.0,4.0,48,0.00,,OVC055,0.00,VWS V14.01,2013-04-07 15:34:00,
2013-04-07 11:39:00,62.6,42.7,30.23,NNE,31,3.0,5.0,48,0.00,,OVC055,0.00,VWS V14.01,2013-04-07 15:39:00,
2013-04-07 11:44:00,63.2,44.3,30.23,WSW,254,2.0,5.0,50,0.00,,OVC055,0.00,VWS V14.01,2013-04-07 15:44:00,
2013-04-07 11:49:00,63.3,44.4,30.23,North,355,2.0,7.0,50,0.00,,OVC055,0.00,VWS V14.01,2013-04-07 15:49:00,
2013-04-07 11:54:00,63.0,43.6,30.23,NW,319,4.0,9.0,49,0.00,,OVC055,0.00,VWS V14.01,2013-04-07 15:54:00,
2013-04-07 11:59:00,62.8,43.9,30.22,SSW,197,6.0,6.0,50,0.00,,OVC055,0.00,VWS V14.01,2013-04-07 15:59:00,
2013-04-07 12:00:00,62.8,44.4,30.22,NW,313,4.0,9.0,51,0.00,,OVC055,0.00,VWS V14.01,2013-04-07 16:00:00,
2013-04-07 12:04:00,62.7,44.3,30.22,SSE,166,3.0,11.0,51,0.00,,OVC055,0.00,VWS V14.01,2013-04-07 16:04:00,
2013-04-07 12:09:00,62.8,43.9,30.22,South,180,1.0,11.0,50,0.00,,OVC055,0.00,VWS V14.01,2013-04-07 16:09:00,
2013-04-07 12:14:00,62.7,45.3,30.22,North,355,0.0,11.0,53,0.00,,OVC055,0.00,VWS V14.01,2013-04-07 16:14:00,
2013-04-07 12:19:00,63.4,44.5,30.22,WNW,293,5.0,11.0,50,0.00,,OVC055,0.00,VWS V14.01,2013-04-07 16:19:00,
2013-04-07 12:24:00,63.2,44.8,30.21,WNW,286,1.0,11.0,51,0.00,,OVC055,0.00,VWS V14.01,2013-04-07 16:24:00,
2013-04-07 12:29:00,63.5,44.5,30.21,ESE,119,5.0,6.0,50,0.00,,OVC055,0.00,VWS V14.01,2013-04-07 16:29:00,
2013-04-07 12:30:00,63.5,44.5,30.21,NNE,28,0.0,11.0,50,0.00,,OVC055,0.00,VWS V14.01,2013-04-07 16:30:00,
2013-04-07 12:34:00,63.8,45.3,30.21,NNE,17,2.0,7.0,51,0.00,,OVC055,0.00,VWS V14.01,2013-04-07 16:34:00,
2013-04-07 12:39:00,63.7,45.2,30.20,NNW,337,4.0,7.0,51,0.00,,OVC055,0.00,VWS V14.01,2013-04-07 16:39:00,
2013-04-07 12:44:00,63.7,44.2,30.20,North,355,2.0,10.0,49,0.00,,OVC055,0.00,VWS V14.01,2013-04-07 16:44:00,
2013-04-07 12:49:00,63.5,45.1,30.20,WSW,254,3.0,10.0,51,0.00,,OVC055,0.00,VWS V14.01,2013-04-07 16:49:00,
2013-04-07 12:54:00,63.9,46.5,30.20,WNW,288,3.0,10.0,53,0.00,,OVC055,0.00,VWS V14.01,2013-04-07 16:54:00,
2013-04-07 13:00:00,64.0,45.5,30.20,WSW,247,3.0,5.0,51,0.00,,OVC055,0.00,VWS V14.01,2013-04-07 17:00:00,
2013-04-07 13:05:00,64.4,45.9,30.19,NNW,348,4.0,9.0,51,0.00,,OVC055,0.00,VWS V14.01,2013-04-07 17:05:00,
2013-04-07 13:10:00,64.8,45.7,30.19,NW,323,2.0,11.0,50,0.00,,OVC055,0.00,VWS V14.01,2013-04-07 17:10:00,
2013-04-07 13:15:00,65.2,46.1,30.19,North,5,4.0,11.0,50,0.00,,OVC055,0.00,VWS V14.01,2013-04-07 17:15:00,
2013-04-07 13:20:00,65.1,44.9,30.18,NW,313,2.0,11.0,48,0.00,,OVC055,0.00,VWS V14.01,2013-04-07 17:20:00,
2013-04-07 13:25:00,65.1,44.9,30.18,NNW,331,1.0,11.0,48,0.00,,OVC055,0.00,VWS V14.01,2013-04-07 17:25:00,
2013-04-07 13:30:00,65.7,46.6,30.18,NNE,26,1.0,5.0,50,0.00,,OVC055,0.00,VWS V14.01,2013-04-07 17:30:00,
2013-04-07 13:35:00,65.9,46.2,30.17,NE,47,2.0,10.0,49,0.00,,OVC055,0.00,VWS V14.01,2013-04-07 17:35:00,
2013-04-07 13:40:00,65.9,45.1,30.17,North,5,3.0,10.0,47,0.00,,OVC055,0.00,VWS V14.01,2013-04-07 17:40:00,
2013-04-07 13:45:00,66.1,44.7,30.17,SE,128,0.0,10.0,46,0.00,,OVC055,0.00,VWS V14.01,2013-04-07 17:45:00,
2013-04-07 13:50:00,66.3,45.5,30.17,North,9,4.0,10.0,47,0.00,,OVC055,0.00,VWS V14.01,2013-04-07 17:50:00,
2013-04-07 13:55:00,66.2,46.5,30.16,NNW,348,5.0,10.0,49,0.00,,OVC055,0.00,VWS V14.01,2013-04-07 17:55:00,
2013-04-07 14:00:00,66.2,46.5,30.16,WNW,285,5.0,8.0,49,0.00,,OVC055,0.00,VWS V14.01,2013-04-07 18:00:00,
2013-04-07 14:05:00,66.9,47.7,30.16,NE,38,2.0,8.0,50,0.00,,OVC055,0.00,VWS V14.01,2013-04-07 18:05:00,
2013-04-07 14:10:00,67.1,46.8,30.16,WSW,238,6.0,8.0,48,0.00,,OVC055,0.00,VWS V14.01,2013-04-07 18:10:00,
2013-04-07 14:15:00,67.1,46.8,30.16,ESE,107,3.0,8.0,48,0.00,,OVC055,0.00,VWS V14.01,2013-04-07 18:15:00,
2013-04-07 14:20:00,67.2,46.9,30.15,NNW,347,2.0,8.0,48,0.00,,OVC055,0.00,VWS V14.01,2013-04-07 18:20:00,
2013-04-07 14:25:00,67.1,46.8,30.15,NNW,344,4.0,8.0,48,0.00,,OVC055,0.00,VWS V14.01,2013-04-07 18:25:00,
2013-04-07 14:30:00,67.2,49.0,30.15,NNW,332,4.0,4.0,52,0.00,,OVC055,0.00,VWS V14.01,2013-04-07 18:30:00,
2013-04-07 14:35:00,67.5,47.7,30.15,South,176,4.0,8.0,49,0.00,,OVC055,0.00,VWS V14.01,2013-04-07 18:35:00,
2013-04-07 14:40:00,67.2,46.9,30.14,SSW,193,1.0,8.0,48,0.00,,OVC055,0.00,VWS V14.01,2013-04-07 18:40:00,
2013-04-07 14:45:00,67.2,46.9,30.15,NNW,330,3.0,8.0,48,0.00,,OVC055,0.00,VWS V14.01,2013-04-07 18:45:00,
2013-04-07 14:50:00,66.8,47.0,30.14,West,273,2.0,8.0,49,0.00,,OVC055,0.00,VWS V14.01,2013-04-07 18:50:00,
2013-04-07 14:55:00,66.3,46.6,30.14,ESE,115,8.0,8.0,49,0.00,,OVC055,0.00,VWS V14.01,2013-04-07 18:55:00,
2013-04-07 15:00:00,65.8,46.7,30.14,WNW,290,2.0,5.0,50,0.00,,OVC055,0.00,VWS V14.01,2013-04-07 19:00:00,
2013-04-07 15:05:00,66.1,47.5,30.14,SE,128,2.0,6.0,51,0.00,,OVC055,0.00,VWS V14.01,2013-04-07 19:05:00,
2013-04-07 15:10:00,66.3,46.0,30.14,SW,232,4.0,12.0,48,0.00,,OVC055,0.00,VWS V14.01,2013-04-07 19:10:00,
2013-04-07 15:15:00,66.7,46.4,30.14,NE,49,2.0,12.0,48,0.00,,OVC055,0.00,VWS V14.01,2013-04-07 19:15:00,
2013-04-07 15:20:00,66.8,46.5,30.14,West,274,1.0,12.0,48,0.00,,OVC055,0.00,VWS V14.01,2013-04-07 19:20:00,
2013-04-07 15:25:00,66.8,47.6,30.14,NW,310,4.0,12.0,50,0.00,,OVC055,0.00,VWS V14.01,2013-04-07 19:25:00,
2013-04-07 15:30:00,66.8,46.5,30.14,East,84,3.0,3.0,48,0.00,,OVC055,0.00,VWS V14.01,2013-04-07 19:30:00,
2013-04-07 15:35:00,66.4,46.1,30.13,North,5,1.0,9.0,48,0.00,,OVC055,0.00,VWS V14.01,2013-04-07 19:35:00,
2013-04-07 15:40:00,66.5,46.2,30.13,SW,224,3.0,9.0,48,0.00,,OVC055,0.00,VWS V14.01,2013-04-07 19:40:00,
2013-04-07 15:45:00,66.6,45.8,30.13,East,87,1.0,9.0,47,0.00,,OVC055,0.00,VWS V14.01,2013-04-07 19:45:00,
2013-04-07 15:51:00,66.4,46.7,30.13,NNE,23,1.0,9.0,49,0.00,,OVC055,0.00,VWS V14.01,2013-04-07 19:51:00,
2013-04-07 15:56:00,66.3,46.6,30.13,North,360,2.0,9.0,49,0.00,,OVC055,0.00,VWS V14.01,2013-04-07 19:56:00,
2013-04-07 16:00:00,66.3,46.6,30.13,NNE,22,2.0,9.0,49,0.00,,OVC055,0.00,VWS V14.01,2013-04-07 20:00:00,
2013-04-07 16:01:00,66.3,47.1,30.13,NNE,22,0.0,2.0,50,0.00,,OVC055,0.00,VWS V14.01,2013-04-07 20:01:00,
2013-04-07 16:06:00,66.1,46.9,30.13,WNW,300,2.0,8.0,50,0.00,,OVC055,0.00,VWS V14.01,2013-04-07 20:06:00,
2013-04-07 16:11:00,65.9,46.2,30.13,SSW,192,3.0,8.0,49,0.00,,OVC055,0.00,VWS V14.01,2013-04-07 20:11:00,
2013-04-07 16:16:00,65.6,46.5,30.13,WNW,298,2.0,8.0,50,0.00,,OVC055,0.00,VWS V14.01,2013-04-07 20:16:00,
2013-04-07 16:21:00,65.5,46.9,30.13,NE,44,3.0,8.0,51,0.00,,OVC055,0.00,VWS V14.01,2013-04-07 20:21:00,
2013-04-07 16:25:00,65.4,46.8,30.13,North,360,4.0,8.0,51,0.00,,OVC055,0.00,VWS V14.01,2013-04-07 20:25:00,
2013-04-07 16:30:00,65.4,47.3,30.13,SW,222,3.0,8.0,52,0.00,,OVC055,0.00,VWS V14.01,2013-04-07 20:30:00,
2013-04-07 16:31:00,65.4,46.3,30.13,WSW,247,1.0,5.0,50,0.00,,OVC055,0.00,VWS V14.01,2013-04-07 20:31:00,
2013-04-07 16:36:00,65.5,46.9,30.13,NW,307,0.0,6.0,51,0.00,,OVC055,0.00,VWS V14.01,2013-04-07 20:36:00,
2013-04-07 16:41:00,65.6,47.0,30.13,WSW,257,2.0,6.0,51,0.00,,OVC055,0.00,VWS V14.01,2013-04-07 20:41:00,
2013-04-07 16:46:00,65.6,46.5,30.13,NNE,26,1.0,6.0,50,0.00,,OVC055,0.00,VWS V14.01,2013-04-07 20:46:00,
2013-04-07 16:51:00,65.6,47.5,30.13,NNW,344,3.0,6.0,52,0.00,,OVC055,0.00,VWS V14.01,2013-04-07 20:51:00,
2013-04-07 16:56:00,66.0,47.4,30.13,North,360,2.0,6.0,51,0.00,,OVC055,0.00,VWS V14.01,2013-04-07 20:56:00,
2013-04-07 17:00:00,66.1,46.9,30.13,North,11,1.0,6.0,50,0.00,,OVC055,0.00,VWS V14.01,2013-04-07 21:00:00,
2013-04-07 17:01:00,66.3,48.2,30.13,NNE,24,2.0,3.0,52,0.00,,OVC055,0.00,VWS V14.01,2013-04-07 21:01:00,
2013-04-07 17:06:00,66.9,47.1,30.13,NW,304,0.0,6.0,49,0.00,,OVC055,0.00,VWS V14.01,2013-04-07 21:06:00,
2013-04-07 17:11:00,67.1,47.3,30.13,SSW,211,1.0,6.0,49,0.00,,OVC055,0.00,VWS V14.01,2013-04-07 21:11:00,
2013-04-07 17:17:00,66.8,46.5,30.12,North,5,2.0,7.0,48,0.00,,OVC055,0.00,VWS V14.01,2013-04-07 21:17:00,
2013-04-07 17:22:00,66.5,47.8,30.13,ENE,67,4.0,7.0,51,0.00,,OVC055,0.00,VWS V14.01,2013-04-07 21:22:00,
2013-04-07 17:27:00,66.1,46.4,30.12,South,173,1.0,7.0,49,0.00,,OVC055,0.00,VWS V14.01,2013-04-07 21:27:00,
2013-04-07 17:30:00,66.0,46.8,30.12,ENE,71,1.0,7.0,50,0.00,,OVC055,0.00,VWS V14.01,2013-04-07 21:30:00,
2013-04-07 17:32:00,65.9,46.2,30.12,NNE,24,1.0,4.0,49,0.00,,OVC055,0.00,VWS V14.01,2013-04-07 21:32:00,
2013-04-07 17:37:00,65.9,46.2,30.12,West,272,1.0,9.0,49,0.00,,OVC055,0.00,VWS V14.01,2013-04-07 21:37:00,
2013-04-07 17:42:00,66.3,47.7,30.12,NNW,342,0.0,9.0,51,0.00,,OVC055,0.00,VWS V14.01,2013-04-07 21:42:00,
2013-04-07 17:47:00,66.8,47.0,30.12,ENE,59,3.0,9.0,49,0.00,,OVC055,0.00,VWS V14.01,2013-04-07 21:47:00,
2013-04-07 17:52:00,66.6,46.3,30.12,NNE,25,1.0,9.0,48,0.00,,OVC055,0.00,VWS V14.01,2013-04-07 21:52:00,
2013-04-07 17:57:00,66.3,46.6,30.13,NNW,344,1.0,9.0,49,0.00,,OVC055,0.00,VWS V14.01,2013-04-07 21:57:00,
2013-04-07 18:00:00,66.3,46.6,30.13,NNW,344,1.0,9.0,49,0.00,,OVC055,0.00,VWS V14.01,2013-04-07 22:00:00,
2013-04-07 18:02:00,66.1,46.4,30.13,ESE,121,8.0,10.0,49,0.00,,OVC055,0.00,VWS V14.01,2013-04-07 22:02:00,
2013-04-07 18:07:00,65.8,46.7,30.13,ENE,69,2.0,10.0,50,0.00,,OVC055,0.00,VWS V14.01,2013-04-07 22:07:00,
2013-04-07 18:12:00,65.7,47.6,30.12,NNW,338,2.0,10.0,52,0.00,,OVC055,0.00,VWS V14.01,2013-04-07 22:12:00,
2013-04-07 18:17:00,65.9,46.8,30.12,West,261,0.0,10.0,50,0.00,,OVC055,0.00,VWS V14.01,2013-04-07 22:17:00,
2013-04-07 18:22:00,66.0,46.8,30.12,NE,54,1.0,10.0,50,0.00,,OVC055,0.00,VWS V14.01,2013-04-07 22:22:00,
2013-04-07 18:27:00,65.8,46.7,30.12,SE,143,5.0,10.0,50,0.00,,OVC055,0.00,VWS V14.01,2013-04-07 22:27:00,
2013-04-07 18:30:00,65.7,46.6,30.12,NW,312,1.0,10.0,50,0.00,,OVC055,0.00,VWS V14.01,2013-04-07 22:30:00,
2013-04-07 18:32:00,65.5,46.4,30.12,WNW,287,3.0,4.0,50,0.00,,OVC055,0.00,VWS V14.01,2013-04-07 22:32:00,
2013-04-07 18:37:00,65.0,46.5,30.12,NW,321,0.0,5.0,51,0.00,,OVC055,0.00,VWS V14.01,2013-04-07 22:37:00,
2013-04-07 18:42:00,64.5,46.5,30.12,SSW,206,2.0,10.0,52,0.00,,OVC055,0.00,VWS V14.01,2013-04-07 22:42:00,
2013-04-07 18:47:00,64.0,46.0,30.13,SE,143,1.0,10.0,52,0.00,,OVC055,0.00,VWS V14.01,2013-04-07 22:47:00,
2013-04-07 18:52:00,63.6,46.7,30.13,SSE,165,2.0,10.0,54,0.00,,OVC055,0.00,VWS V14.01,2013-04-07 22:52:00,
2013-04-07 18:57:00,63.3,45.9,30.13,North,355,2.0,10.0,53,0.00,,OVC055,0.00,VWS V14.01,2013-04-07 22:57:00,
2013-04-07 19:00:00,63.3,46.4,30.13,North,355,1.0,10.0,54,0.00,,OVC055,0.00,VWS V14.01,2013-04-07 23:00:00,
2013-04-07 19:02:00,63.2,46.8,30.14,ENE,76,1.0,3.0,55,0.00,,OVC055,0.00,VWS V14.01,2013-04-07 23:02:00,
2013-04-07 19:07:00,63.1,47.2,30.13,NE,39,4.0,4.0,56,0.00,,OVC055,0.00,VWS V14.01,2013-04-07 23:07:00,
2013-04-07 19:12:00,63.1,46.2,30.13,NE,39,3.0,5.0,54,0.00,,OVC055,0.00,VWS V14.01,2013-04-07 23:12:00,
2013-04-07 19:17:00,63.1,46.2,30.13,NE,43,2.0,5.0,54,0.00,,OVC055,0.00,VWS V14.01,2013-04-07 23:17:00,
2013-04-07 19:22:00,63.0,46.6,30.13,NNE,24,3.0,5.0,55,0.00,,OVC055,0.00,VWS V14.01,2013-04-07 23:22:00,
2013-04-07 19:27:00,62.8,45.9,30.13,ENE,62,3.0,5.0,54,0.00,,OVC055,0.00,VWS V14.01,2013-04-07 23:27:00,
2013-04-07 19:30:00,62.7,46.3,30.13,ENE,62,0.0,5.0,55,0.00,,OVC055,0.00,VWS V14.01,2013-04-07 23:30:00,
2013-04-07 19:32:00,62.5,46.6,30.13,ENE,62,0.0,1.0,56,0.00,,OVC055,0.00,VWS V14.01,2013-04-07 23:32:00,
2013-04-07 19:37:00,62.2,46.3,30.13,ENE,62,0.0,1.0,56,0.00,,OVC055,0.00,VWS V14.01,2013-04-07 23:37:00,
2013-04-07 19:42:00,61.8,46.0,30.13,South,186,0.0,4.0,56,0.00,,OVC055,0.00,VWS V14.01,2013-04-07 23:42:00,
2013-04-07 19:47:00,61.4,46.0,30.14,South,186,1.0,4.0,57,0.00,,OVC055,0.00,VWS V14.01,2013-04-07 23:47:00,
2013-04-07 19:52:00,60.9,45.6,30.14,South,186,0.0,4.0,57,0.00,,OVC055,0.00,VWS V14.01,2013-04-07 23:52:00,
2013-04-07 19:57:00,60.6,45.8,30.14,South,186,0.0,4.0,58,0.00,,OVC055,0.00,VWS V14.01,2013-04-07 23:57:00,
2013-04-07 20:00:00,60.5,45.7,30.14,South,186,1.0,4.0,58,0.00,,OVC055,0.00,VWS V14.01,2013-04-08 00:00:00,
2013-04-07 20:02:00,60.4,45.6,30.14,South,186,0.0,1.0,58,0.00,,OVC055,0.00,VWS V14.01,2013-04-08 00:02:00,
2013-04-07 20:07:00,60.1,45.3,30.14,South,186,0.0,1.0,58,0.00,,OVC055,0.00,VWS V14.01,2013-04-08 00:07:00,
2013-04-07 20:12:00,59.9,45.5,30.14,South,186,0.0,1.0,59,0.00,,OVC055,0.00,VWS V14.01,2013-04-08 00:12:00,
2013-04-07 20:17:00,59.8,45.5,30.14,South,186,0.0,1.0,59,0.00,,OVC055,0.00,VWS V14.01,2013-04-08 00:17:00,
2013-04-07 20:22:00,59.6,45.7,30.14,South,186,0.0,1.0,60,0.00,,OVC055,0.00,VWS V14.01,2013-04-08 00:22:00,
2013-04-07 20:27:00,59.5,45.6,30.15,South,186,0.0,1.0,60,0.00,,OVC055,0.00,VWS V14.01,2013-04-08 00:27:00,
2013-04-07 20:30:00,59.3,45.4,30.15,South,186,0.0,1.0,60,0.00,,OVC055,0.00,VWS V14.01,2013-04-08 00:30:00,
2013-04-07 20:32:00,59.1,45.7,30.15,South,186,0.0,0.0,61,0.00,,OVC055,0.00,VWS V14.01,2013-04-08 00:32:00,
2013-04-07 20:37:00,58.9,45.5,30.14,South,186,0.0,0.0,61,0.00,,OVC055,0.00,VWS V14.01,2013-04-08 00:37:00,
2013-04-07 20:42:00,58.7,46.6,30.15,South,186,0.0,0.0,64,0.00,,OVC055,0.00,VWS V14.01,2013-04-08 00:42:00,
2013-04-07 20:47:00,58.3,46.2,30.15,South,186,1.0,1.0,64,0.00,,OVC055,0.00,VWS V14.01,2013-04-08 00:47:00,
2013-04-07 20:52:00,57.8,45.7,30.15,South,186,0.0,1.0,64,0.00,,OVC055,0.00,VWS V14.01,2013-04-08 00:52:00,
2013-04-07 20:57:00,57.5,45.4,30.15,South,186,0.0,1.0,64,0.00,,OVC055,0.00,VWS V14.01,2013-04-08 00:57:00,
2013-04-07 21:00:00,57.4,45.3,30.15,South,186,0.0,1.0,64,0.00,,OVC055,0.00,VWS V14.01,2013-04-08 01:00:00,
2013-04-07 21:02:00,57.3,45.7,30.15,South,186,0.0,0.0,65,0.00,,OVC055,0.00,VWS V14.01,2013-04-08 01:02:00,
2013-04-07 21:07:00,56.8,45.2,30.15,South,186,0.0,0.0,65,0.00,,OVC055,0.00,VWS V14.01,2013-04-08 01:07:00,
2013-04-07 21:12:00,56.4,45.2,30.15,South,186,0.0,1.0,66,0.00,,OVC055,0.00,VWS V14.01,2013-04-08 01:12:00,
2013-04-07 21:17:00,56.0,44.8,30.16,South,186,0.0,1.0,66,0.00,,OVC055,0.00,VWS V14.01,2013-04-08 01:17:00,
2013-04-07 21:22:00,55.7,44.9,30.16,South,186,0.0,1.0,67,0.00,,OVC055,0.00,VWS V14.01,2013-04-08 01:22:00,
2013-04-07 21:27:00,55.3,44.9,30.16,South,186,0.0,1.0,68,0.00,,OVC055,0.00,VWS V14.01,2013-04-08 01:27:00,
2013-04-07 21:30:00,55.2,44.8,30.16,South,186,0.0,1.0,68,0.00,,OVC055,0.00,VWS V14.01,2013-04-08 01:30:00,
2013-04-07 21:32:00,55.0,45.0,30.16,South,186,0.0,0.0,69,0.00,,OVC055,0.00,VWS V14.01,2013-04-08 01:32:00,
2013-04-07 21:37:00,54.7,44.7,30.16,South,186,0.0,1.0,69,0.00,,OVC055,0.00,VWS V14.01,2013-04-08 01:37:00,
2013-04-07 21:43:00,54.4,45.2,30.16,South,186,0.0,1.0,71,0.00,,OVC055,0.00,VWS V14.01,2013-04-08 01:43:00,
2013-04-07 21:48:00,54.3,45.1,30.16,South,186,0.0,1.0,71,0.00,,OVC055,0.00,VWS V14.01,2013-04-08 01:48:00,
2013-04-07 21:53:00,54.0,45.5,30.17,South,186,0.0,1.0,73,0.00,,OVC055,0.00,VWS V14.01,2013-04-08 01:53:00,
2013-04-07 21:58:00,53.6,45.5,30.16,South,186,0.0,1.0,74,0.00,,OVC055,0.00,VWS V14.01,2013-04-08 01:58:00,
2013-04-07 22:00:00,53.3,45.2,30.16,South,186,0.0,1.0,74,0.00,,OVC055,0.00,VWS V14.01,2013-04-08 02:00:00,
2013-04-07 22:03:00,52.9,44.8,30.16,South,186,0.0,1.0,74,0.00,,OVC055,0.00,VWS V14.01,2013-04-08 02:03:00,
2013-04-07 22:08:00,52.8,44.8,30.16,South,186,0.0,1.0,74,0.00,,OVC055,0.00,VWS V14.01,2013-04-08 02:08:00,
2013-04-07 22:13:00,52.6,44.9,30.16,South,186,0.0,1.0,75,0.00,,OVC055,0.00,VWS V14.01,2013-04-08 02:13:00,
2013-04-07 22:18:00,52.3,44.6,30.16,South,186,0.0,1.0,75,0.00,,OVC055,0.00,VWS V14.01,2013-04-08 02:18:00,
2013-04-07 22:23:00,52.2,44.9,30.16,South,186,0.0,1.0,76,0.00,,OVC055,0.00,VWS V14.01,2013-04-08 02:23:00,
2013-04-07 22:28:00,52.1,44.8,30.16,South,186,0.0,1.0,76,0.00,,OVC055,0.00,VWS V14.01,2013-04-08 02:28:00,
2013-04-07 22:30:00,52.1,45.1,30.16,South,186,0.0,1.0,77,0.00,,OVC055,0.00,VWS V14.01,2013-04-08 02:30:00,
2013-04-07 22:33:00,51.9,44.9,30.16,South,186,0.0,0.0,77,0.00,,OVC055,0.00,VWS V14.01,2013-04-08 02:33:00,
2013-04-07 22:38:00,51.6,44.6,30.16,South,186,0.0,0.0,77,0.00,,OVC055,0.00,VWS V14.01,2013-04-08 02:38:00,
2013-04-07 22:43:00,51.4,44.4,30.16,South,186,0.0,0.0,77,0.00,,OVC055,0.00,VWS V14.01,2013-04-08 02:43:00,
2013-04-07 22:48:00,51.2,44.9,30.16,South,186,0.0,0.0,79,0.00,,OVC055,0.00,VWS V14.01,2013-04-08 02:48:00,
2013-04-07 22:53:00,51.0,44.7,30.16,South,186,0.0,0.0,79,0.00,,OVC055,0.00,VWS V14.01,2013-04-08 02:53:00,
2013-04-07 22:58:00,50.9,45.0,30.16,South,186,0.0,0.0,80,0.00,,OVC055,0.00,VWS V14.01,2013-04-08 02:58:00,
2013-04-07 23:00:00,50.8,44.9,30.16,South,186,0.0,0.0,80,0.00,,OVC055,0.00,VWS V14.01,2013-04-08 03:00:00,
2013-04-07 23:03:00,50.6,44.7,30.16,South,186,0.0,0.0,80,0.00,,OVC055,0.00,VWS V14.01,2013-04-08 03:03:00,
2013-04-07 23:08:00,50.4,44.5,30.16,South,186,0.0,0.0,80,0.00,,OVC055,0.00,VWS V14.01,2013-04-08 03:08:00,
2013-04-07 23:13:00,50.2,44.3,30.15,South,186,0.0,0.0,80,0.00,,OVC055,0.00,VWS V14.01,2013-04-08 03:13:00,
2013-04-07 23:18:00,49.9,44.3,30.15,South,186,0.0,0.0,81,0.00,,OVC055,0.00,VWS V14.01,2013-04-08 03:18:00,
2013-04-07 23:23:00,49.7,44.4,30.15,South,186,0.0,0.0,82,0.00,,OVC055,0.00,VWS V14.01,2013-04-08 03:23:00,
2013-04-07 23:28:00,49.6,44.7,30.15,South,186,0.0,0.0,83,0.00,,OVC055,0.00,VWS V14.01,2013-04-08 03:28:00,
2013-04-07 23:30:00,49.6,44.7,30.15,South,186,0.0,0.0,83,0.00,,OVC055,0.00,VWS V14.01,2013-04-08 03:30:00,
2013-04-07 23:33:00,49.6,44.7,30.15,South,186,0.0,0.0,83,0.00,,OVC055,0.00,VWS V14.01,2013-04-08 03:33:00,
2013-04-07 23:38:00,49.5,44.9,30.15,South,186,0.0,0.0,84,0.00,,OVC055,0.00,VWS V14.01,2013-04-08 03:38:00,
2013-04-07 23:43:00,49.3,44.7,30.14,South,186,0.0,0.0,84,0.00,,OVC055,0.00,VWS V14.01,2013-04-08 03:43:00,
2013-04-07 23:48:00,49.1,44.5,30.15,South,186,0.0,0.0,84,0.00,,OVC055,0.00,VWS V14.01,2013-04-08 03:48:00,
2013-04-07 23:53:00,48.8,44.2,30.15,South,186,0.0,0.0,84,0.00,,OVC055,0.00,VWS V14.01,2013-04-08 03:53:00,
2013-04-07 23:58:00,48.7,44.4,30.15,South,186,0.0,0.0,85,0.00,,OVC055,0.00,VWS V14.01,2013-04-08 03:58:00,